���t,����,�O�C���x,�����t���O,�O�C���Ύ��x,�����t���O,���ԋ�C���x,�����t���O,���ԑ��Ύ��x,�����t���O,�g�C���^���N����,�����t���O,���֋�C���x,�����t���O,��g�[�����x,�����t���O
2003/1/1,0:00,7.4,0,46,0,23.7,0,31.9,0,12.7,0,12.4,0,11.8,0
2003/1/1,0:15,7.4,0,46,0,23.8,0,31.9,0,12.8,0,12.4,0,11.8,0
2003/1/1,0:30,7.4,0,45,0,23.9,0,32,0,12.9,0,12.4,0,11.8,0
2003/1/1,0:45,7.5,0,44,0,23.9,0,32.3,0,12.9,0,12.4,0,11.7,0
2003/1/1,1:00,7.5,0,45,0,23.9,0,32.3,0,13,0,12.4,0,11.7,0
2003/1/1,1:15,7.5,0,45,0,23.9,0,32.6,0,13,0,12.4,0,11.7,0
2003/1/1,1:30,7.5,0,45,0,23.6,0,32.7,0,13.1,0,12.4,0,11.7,0
2003/1/1,1:45,7.5,0,45,0,23,0,33.4,0,13.1,0,12.4,0,11.7,0
2003/1/1,2:00,7.5,0,47,0,22.5,0,32.9,0,11.2,0,12.4,0,11.7,0
2003/1/1,2:15,7.6,0,48,0,22.8,0,32.7,0,11.2,0,12.5,0,11.7,0
2003/1/1,2:30,7.6,0,49,0,23.5,0,32.1,0,11.3,0,12.5,0,11.8,0
2003/1/1,2:45,7.6,0,51,0,23.9,0,31,0,11.4,0,12.5,0,11.9,0
2003/1/1,3:00,7.6,0,52,0,24,0,31.2,0,11.5,0,12.6,0,12,0
2003/1/1,3:15,7.6,0,51,0,24.2,0,31.1,0,11.6,0,12.6,0,11.9,0
2003/1/1,3:30,7.3,0,51,0,24.1,0,31.4,0,11.6,0,12.6,0,11.9,0
2003/1/1,3:45,7.3,0,52,0,24.1,0,31.4,0,11.7,0,12.6,0,11.8,0
2003/1/1,4:00,7.3,0,51,0,24.1,0,31.5,0,11.8,0,12.6,0,11.8,0
2003/1/1,4:15,7.1,0,50,0,24.1,0,31.6,0,11.8,0,12.6,0,11.8,0
2003/1/1,4:30,7.3,0,49,0,24.1,0,31.8,0,11.9,0,12.6,0,11.8,0
2003/1/1,4:45,7.1,0,49,0,24.2,0,31.7,0,12,0,12.6,0,11.8,0
2003/1/1,5:00,7.1,0,49,0,24.2,0,31.7,0,12,0,12.6,0,11.8,0
2003/1/1,5:15,7.3,0,51,0,24.2,0,31.5,0,12.1,0,12.6,0,11.8,0
2003/1/1,5:30,7.3,0,53,0,24.2,0,31.5,0,12.2,0,12.6,0,11.7,0
2003/1/1,5:45,7.4,0,53,0,23.3,0,32.3,0,12.2,0,12.6,0,11.7,0
2003/1/1,6:00,7.4,0,52,0,22.7,0,33,0,12.3,0,12.6,0,11.7,0
2003/1/1,6:15,7.3,0,52,0,23.2,0,32.7,0,12.3,0,12.6,0,11.7,0
2003/1/1,6:30,7.3,0,53,0,23.9,0,32.1,0,12.4,0,12.5,0,11.6,0
2003/1/1,6:45,7.2,0,54,0,24.2,0,31.8,0,12.5,0,12.5,0,11.6,0
2003/1/1,7:00,7.2,0,53,0,24.3,0,31.7,0,12.5,0,12.5,0,11.6,0
2003/1/1,7:15,7,0,54,0,24.3,0,31.7,0,12.6,0,12.5,0,11.6,0
2003/1/1,7:30,7,0,55,0,23.7,0,30.8,0,12.6,0,12.5,0,11.6,0
2003/1/1,7:45,6.9,0,55,0,23.3,0,30.5,0,12.6,0,12.5,0,11.6,0
2003/1/1,8:00,6.8,0,54,0,22.8,0,29.9,0,11.3,0,12.6,0,11.7,0
2003/1/1,8:15,7.5,0,53,0,23,0,30.2,0,11.3,0,12.7,0,12,0
2003/1/1,8:30,11.2,0,44,0,22.6,0,29.2,0,11.4,0,12.8,0,12.3,0
2003/1/1,8:45,12.8,0,38,0,22.6,0,29.7,0,11.5,0,12.9,0,12.8,0
2003/1/1,9:00,14.5,0,35,0,22.1,0,31.3,0,11.6,0,13.1,0,13.7,0
2003/1/1,9:15,17,0,29,0,21.8,0,30.7,0,11.6,0,13.4,0,14.7,0
2003/1/1,9:30,18.1,0,26,0,22,0,30.5,0,11.7,0,13.6,0,14.7,0
2003/1/1,9:45,19.7,0,23,0,22.5,0,29.9,0,10.9,0,13.7,0,14.7,0
2003/1/1,10:00,21.5,0,19,0,20.6,0,31.8,0,11,0,13.8,0,14.3,0
2003/1/1,10:15,21.4,0,19,0,19.3,0,34.3,0,11.1,0,13.7,0,14.4,0
2003/1/1,10:30,20.6,0,22,0,18.8,0,35,0,11.2,0,13.8,0,14.6,0
2003/1/1,10:45,19.4,0,24,0,18.5,0,35.6,0,11.3,0,13.9,0,14.7,0
2003/1/1,11:00,19.9,0,22,0,18.1,0,36.1,0,11.4,0,14,0,14.8,0
2003/1/1,11:15,17.3,0,25,0,17.8,0,36.5,0,11.5,0,14,0,14.8,0
2003/1/1,11:30,17.5,0,25,0,17.5,0,37.1,0,11.5,0,14,0,14.9,0
2003/1/1,11:45,16.6,0,26,0,17.3,0,37,0,11.6,0,14,0,14.9,0
2003/1/1,12:00,15,0,30,0,17.1,0,37.6,0,11.7,0,14,0,15,0
2003/1/1,12:15,15.7,0,29,0,16.9,0,37.9,0,11.8,0,14,0,15,0
2003/1/1,12:30,15.2,0,30,0,16.6,0,38.2,0,11.9,0,14,0,15,0
2003/1/1,12:45,13.5,0,34,0,16.4,0,38.4,0,11.9,0,14,0,15,0
2003/1/1,13:00,11.7,0,40,0,16.3,0,38.7,0,12,0,14,0,15,0
2003/1/1,13:15,11,0,41,0,16,0,38.9,0,12.1,0,14,0,15,0
2003/1/1,13:30,10.4,0,43,0,15.8,0,39.2,0,12.2,0,14,0,14.9,0
2003/1/1,13:45,10.5,0,44,0,15.7,0,39.4,0,12.2,0,13.9,0,14.9,0
2003/1/1,14:00,12.8,0,39,0,15.5,0,39.6,0,12.3,0,13.9,0,14.8,0
2003/1/1,14:15,10.7,0,43,0,15.3,0,39.9,0,12.4,0,13.8,0,14.7,0
2003/1/1,14:30,10.2,0,44,0,15.2,0,40.2,0,12.5,0,13.8,0,14.7,0
2003/1/1,14:45,10,0,44,0,15.1,0,40.3,0,12.5,0,13.8,0,14.7,0
2003/1/1,15:00,9.7,0,47,0,14.9,0,40.5,0,12.6,0,13.7,0,14.6,0
2003/1/1,15:15,9.5,0,47,0,14.8,0,40.5,0,12.7,0,13.7,0,14.6,0
2003/1/1,15:30,9,0,44,0,14.7,0,40.5,0,12.7,0,13.6,0,14.5,0
2003/1/1,15:45,9.3,0,41,0,14.6,0,40.7,0,12.8,0,13.6,0,14.5,0
2003/1/1,16:00,8.7,0,45,0,14.5,0,40.5,0,12.8,0,13.6,0,14.5,0
2003/1/1,16:15,8.2,0,49,0,14.4,0,40.6,0,12.9,0,13.5,0,14.5,0
2003/1/1,16:30,7.8,0,52,0,14.2,0,40.7,0,12.9,0,13.5,0,14.4,0
2003/1/1,16:45,7.6,0,54,0,14.1,0,40.8,0,13,0,13.4,0,14.3,0
2003/1/1,17:00,7.4,0,54,0,14,0,40.9,0,13.1,0,13.4,0,14.1,0
2003/1/1,17:15,7.1,0,55,0,13.9,0,41.2,0,13.1,0,13.3,0,13.9,0
2003/1/1,17:30,7,0,54,0,13.8,0,41.3,0,13.2,0,13.3,0,13.7,0
2003/1/1,17:45,6.8,0,53,0,13.7,0,41.5,0,13.2,0,13.2,0,13.5,0
2003/1/1,18:00,6.7,0,55,0,13.6,0,41.7,0,13.3,0,13.2,0,13.4,0
2003/1/1,18:15,6.7,0,55,0,13.5,0,41.8,0,13.3,0,13.1,0,13.2,0
2003/1/1,18:30,6.7,0,55,0,13.4,0,42,0,13.3,0,13.1,0,13,0
2003/1/1,18:45,6.5,0,55,0,13.2,0,42,0,13.4,0,13,0,12.9,0
2003/1/1,19:00,6.4,0,55,0,13.1,0,42.2,0,13.4,0,12.9,0,12.7,0
2003/1/1,19:15,6.2,0,54,0,13,0,42.3,0,13.5,0,12.9,0,12.6,0
2003/1/1,19:30,6.1,0,54,0,12.9,0,42.5,0,13.5,0,12.8,0,12.5,0
2003/1/1,19:45,5.9,0,52,0,12.8,0,42.6,0,13.5,0,12.8,0,12.3,0
2003/1/1,20:00,6,0,51,0,12.7,0,42.7,0,13.6,0,12.7,0,12.2,0
2003/1/1,20:15,6.1,0,51,0,12.6,0,42.6,0,13.6,0,12.7,0,12.1,0
2003/1/1,20:30,6.1,0,52,0,12.5,0,42.8,0,13.7,0,12.6,0,12,0
2003/1/1,20:45,6.1,0,53,0,12.4,0,42.7,0,13.7,0,12.5,0,11.8,0
2003/1/1,21:00,6.1,0,53,0,12.3,0,42.7,0,13.7,0,12.5,0,11.7,0
2003/1/1,21:15,6.1,0,53,0,12.2,0,42.9,0,13.7,0,12.4,0,11.6,0
2003/1/1,21:30,6,0,53,0,12.1,0,42.9,0,13.8,0,12.3,0,11.5,0
2003/1/1,21:45,5.8,0,52,0,12.1,0,42.9,0,13.8,0,12.3,0,11.5,0
2003/1/1,22:00,5.8,0,50,0,12,0,43,0,13.8,0,12.2,0,11.4,0
2003/1/1,22:15,5.7,0,49,0,11.9,0,43.1,0,13.8,0,12.1,0,11.3,0
2003/1/1,22:30,5.7,0,46,0,11.8,0,43.1,0,13.9,0,12.1,0,11.2,0
2003/1/1,22:45,5.5,0,48,0,11.7,0,43,0,13.9,0,12,0,11.1,0
2003/1/1,23:00,5.7,0,45,0,11.6,0,43,0,13.9,0,11.9,0,11,0
2003/1/1,23:15,5.6,0,47,0,11.5,0,42.9,0,13.9,0,11.9,0,10.9,0
2003/1/1,23:30,5.5,0,48,0,11.5,0,42.9,0,13.9,0,11.8,0,10.8,0
2003/1/1,23:45,5.6,0,46,0,11.4,0,42.8,0,14,0,11.8,0,10.7,0
2003/1/2,0:00,5.7,0,43,0,11.3,0,42.8,0,14,0,11.7,0,10.6,0
2003/1/2,0:15,5.8,0,44,0,11.2,0,42.7,0,14,0,11.7,0,10.5,0
2003/1/2,0:30,5.7,0,44,0,11.1,0,42.5,0,14,0,11.6,0,10.5,0
2003/1/2,0:45,5.7,0,45,0,11,0,42.4,0,14.1,0,11.5,0,10.4,0
2003/1/2,1:00,5.7,0,45,0,11,0,42.3,0,14.1,0,11.5,0,10.3,0
2003/1/2,1:15,5.4,0,48,0,10.9,0,42.3,0,14.1,0,11.4,0,10.3,0
2003/1/2,1:30,5.3,0,49,0,10.9,0,42.5,0,14.1,0,11.3,0,10.2,0
2003/1/2,1:45,5.1,0,49,0,10.8,0,42.5,0,14.1,0,11.3,0,10.1,0
2003/1/2,2:00,4.9,0,50,0,10.7,0,42.4,0,14.2,0,11.2,0,10.1,0
2003/1/2,2:15,4.8,0,50,0,10.6,0,42.4,0,14.2,0,11.2,0,10,0
2003/1/2,2:30,4.8,0,49,0,10.6,0,42.4,0,14.2,0,11.1,0,9.9,0
2003/1/2,2:45,4.7,0,50,0,10.5,0,42.6,0,14.2,0,11,0,9.8,0
2003/1/2,3:00,4.8,0,50,0,10.4,0,42.7,0,14.2,0,11,0,9.8,0
2003/1/2,3:15,5,0,51,0,10.3,0,42.7,0,14.2,0,10.9,0,9.7,0
2003/1/2,3:30,5.2,0,51,0,10.2,0,42.8,0,14.2,0,10.8,0,9.7,0
2003/1/2,3:45,5.2,0,50,0,10.2,0,42.9,0,14.2,0,10.8,0,9.6,0
2003/1/2,4:00,4.9,0,50,0,10.2,0,43.1,0,14.2,0,10.7,0,9.5,0
2003/1/2,4:15,4.9,0,52,0,10.1,0,43.2,0,14.3,0,10.6,0,9.5,0
2003/1/2,4:30,4.8,0,52,0,10.1,0,43.2,0,14.3,0,10.6,0,9.5,0
2003/1/2,4:45,4.8,0,52,0,10,0,43.4,0,14.2,0,10.5,0,9.4,0
2003/1/2,5:00,4.7,0,52,0,10,0,43.5,0,14.2,0,10.5,0,9.4,0
2003/1/2,5:15,4.8,0,55,0,9.9,0,43.8,0,14.3,0,10.4,0,9.3,0
2003/1/2,5:30,4.7,0,54,0,9.9,0,43.9,0,14.3,0,10.4,0,9.3,0
2003/1/2,5:45,4.8,0,55,0,9.8,0,44.1,0,14.3,0,10.3,0,9.2,0
2003/1/2,6:00,4.7,0,56,0,9.8,0,44.2,0,14.3,0,10.3,0,9.2,0
2003/1/2,6:15,4.5,0,54,0,9.7,0,44.2,0,14.3,0,10.2,0,9.1,0
2003/1/2,6:30,4.4,0,55,0,9.7,0,44.4,0,14.3,0,10.2,0,9.1,0
2003/1/2,6:45,4.5,0,56,0,9.7,0,44.5,0,14.3,0,10.1,0,9,0
2003/1/2,7:00,4.6,0,56,0,9.6,0,44.7,0,14.3,0,10.1,0,9,0
2003/1/2,7:15,4.5,0,56,0,9.6,0,44.8,0,14.3,0,10,0,8.9,0
2003/1/2,7:30,4.6,0,57,0,9.5,0,44.9,0,14.3,0,10,0,8.9,0
2003/1/2,7:45,4.7,0,57,0,9.5,0,45,0,14.3,0,10,0,8.9,0
2003/1/2,8:00,4.2,0,61,0,9.5,0,45.2,0,14.3,0,9.9,0,8.8,0
2003/1/2,8:15,4.3,0,63,0,9.5,0,45.3,0,14.3,0,9.9,0,8.8,0
2003/1/2,8:30,4,0,64,0,9.4,0,45.6,0,14.3,0,9.9,0,8.8,0
2003/1/2,8:45,3.9,0,66,0,9.4,0,45.8,0,14.3,0,9.9,0,8.7,0
2003/1/2,9:00,3.9,0,68,0,9.4,0,46.1,0,14.3,0,9.8,0,8.7,0
2003/1/2,9:15,3.9,0,71,0,9.3,0,46.2,0,14.3,0,9.8,0,8.7,0
2003/1/2,9:30,4.5,0,72,0,9.3,0,46.6,0,14.3,0,9.8,0,8.6,0
2003/1/2,9:45,5.9,0,71,0,9.3,0,46.8,0,14.3,0,9.8,0,8.6,0
2003/1/2,10:00,9,0,56,0,9.3,0,46.9,0,14.3,0,9.8,0,8.7,0
2003/1/2,10:15,13,0,46,0,9.4,0,47.3,0,14.4,0,9.8,0,8.7,0
2003/1/2,10:30,17.9,0,33,0,9.4,0,47.4,0,14.4,0,9.8,0,8.9,0
2003/1/2,10:45,19.3,0,29,0,9.5,0,47.5,0,14.4,0,9.7,0,9.1,0
2003/1/2,11:00,20.1,0,26,0,9.5,0,47.9,0,14.4,0,9.7,0,9.3,0
2003/1/2,11:15,18.6,0,27,0,9.6,0,48,0,14.4,0,9.8,0,9.5,0
2003/1/2,11:30,19.3,0,26,0,9.6,0,48.1,0,14.4,0,9.8,0,9.7,0
2003/1/2,11:45,15.4,0,33,0,9.7,0,48.2,0,14.4,0,9.8,0,9.9,0
2003/1/2,12:00,16.8,0,32,0,9.7,0,48.3,0,14.4,0,9.8,0,10.1,0
2003/1/2,12:15,16.2,0,33,0,9.8,0,48.1,0,14.4,0,9.8,0,10.2,0
2003/1/2,12:30,13.9,0,37,0,9.9,0,48.2,0,14.4,0,9.9,0,10.4,0
2003/1/2,12:45,12.8,0,41,0,9.9,0,48.4,0,14.4,0,9.9,0,10.5,0
2003/1/2,13:00,12.2,0,40,0,9.9,0,48.5,0,14.4,0,9.9,0,10.6,0
2003/1/2,13:15,11.3,0,44,0,10,0,48.4,0,14.4,0,9.9,0,10.7,0
2003/1/2,13:30,10.6,0,50,0,10,0,48.5,0,14.4,0,10,0,10.7,0
2003/1/2,13:45,10.3,0,51,0,10,0,48.5,0,14.5,0,10,0,10.7,0
2003/1/2,14:00,9.8,0,49,0,10.1,0,48.7,0,14.5,0,10,0,10.8,0
2003/1/2,14:15,9.8,0,51,0,10.1,0,48.8,0,14.5,0,10,0,10.8,0
2003/1/2,14:30,9.6,0,50,0,10.1,0,48.9,0,14.5,0,10,0,10.8,0
2003/1/2,14:45,9.5,0,50,0,10.1,0,49.1,0,14.5,0,10.1,0,10.8,0
2003/1/2,15:00,9.3,0,50,0,10.1,0,49.2,0,14.5,0,10.1,0,10.7,0
2003/1/2,15:15,8.9,0,50,0,10.1,0,49.2,0,14.5,0,10.1,0,10.7,0
2003/1/2,15:30,8.9,0,50,0,10.1,0,49.3,0,14.5,0,10.1,0,10.7,0
2003/1/2,15:45,8.8,0,50,0,10.2,0,49.3,0,14.5,0,10.1,0,10.7,0
2003/1/2,16:00,8.9,0,49,0,10.2,0,49.4,0,14.6,0,10.1,0,10.6,0
2003/1/2,16:15,8.9,0,49,0,10.1,0,49.3,0,14.6,0,10.1,0,10.6,0
2003/1/2,16:30,8.5,0,49,0,10.2,0,49.3,0,14.6,0,10.2,0,10.6,0
2003/1/2,16:45,8.1,0,50,0,10.2,0,49.3,0,14.6,0,10.2,0,10.7,0
2003/1/2,17:00,7.8,0,51,0,10.2,0,49.2,0,14.6,0,10.2,0,10.7,0
2003/1/2,17:15,7.5,0,51,0,10.1,0,49.3,0,14.6,0,10.2,0,10.7,0
2003/1/2,17:30,7.3,0,53,0,10.1,0,49.4,0,14.6,0,10.2,0,10.6,0
2003/1/2,17:45,7.1,0,54,0,10,0,49.5,0,14.7,0,10.2,0,10.5,0
2003/1/2,18:00,6.6,0,57,0,10,0,49.5,0,14.7,0,10.2,0,10.4,0
2003/1/2,18:15,6.4,0,60,0,10,0,49.5,0,14.7,0,10.2,0,10.3,0
2003/1/2,18:30,6.1,0,62,0,10,0,49.5,0,14.7,0,10.2,0,10.2,0
2003/1/2,18:45,5.3,0,66,0,9.9,0,49.7,0,14.7,0,10.2,0,10.1,0
2003/1/2,19:00,5.4,0,65,0,9.9,0,49.6,0,14.7,0,10.2,0,10,0
2003/1/2,19:15,5.7,0,62,0,9.9,0,49.3,0,14.7,0,10.2,0,9.9,0
2003/1/2,19:30,5.7,0,62,0,9.9,0,49.2,0,14.7,0,10.2,0,9.8,0
2003/1/2,19:45,5.5,0,64,0,9.8,0,49.2,0,14.7,0,10.2,0,9.7,0
2003/1/2,20:00,5.5,0,65,0,9.8,0,49.1,0,14.7,0,10.2,0,9.6,0
2003/1/2,20:15,5.7,0,63,0,9.8,0,49,0,14.7,0,10.1,0,9.6,0
2003/1/2,20:30,5.7,0,64,0,9.8,0,49.1,0,14.7,0,10.1,0,9.5,0
2003/1/2,20:45,5.6,0,65,0,9.7,0,49.1,0,14.7,0,10.1,0,9.4,0
2003/1/2,21:00,5.5,0,66,0,9.7,0,49.3,0,14.7,0,10.1,0,9.4,0
2003/1/2,21:15,5.4,0,66,0,9.7,0,49.4,0,14.7,0,10.1,0,9.3,0
2003/1/2,21:30,5.4,0,67,0,9.7,0,49.4,0,14.8,0,10.1,0,9.3,0
2003/1/2,21:45,5.3,0,69,0,9.6,0,49.4,0,14.7,0,10.1,0,9.2,0
2003/1/2,22:00,5.1,0,70,0,9.6,0,49.5,0,14.7,0,10,0,9.2,0
2003/1/2,22:15,4.8,0,74,0,9.6,0,49.7,0,14.7,0,10,0,9.1,0
2003/1/2,22:30,4.5,0,76,0,9.5,0,49.8,0,14.8,0,10,0,9.1,0
2003/1/2,22:45,4.5,0,75,0,9.5,0,49.8,0,14.7,0,10,0,9,0
2003/1/2,23:00,4.8,0,69,0,9.5,0,50.1,0,14.8,0,10,0,9,0
2003/1/2,23:15,4.8,0,68,0,9.4,0,50.4,0,14.8,0,9.9,0,8.9,0
2003/1/2,23:30,4.7,0,71,0,9.4,0,50.4,0,14.8,0,9.9,0,8.8,0
2003/1/2,23:45,4.6,0,70,0,9.4,0,50.4,0,14.8,0,9.9,0,8.8,0
2003/1/3,0:00,4.8,0,69,0,9.4,0,50.6,0,14.8,0,9.9,0,8.7,0
2003/1/3,0:15,4.8,0,70,0,9.3,0,50.6,0,14.8,0,9.9,0,8.7,0
2003/1/3,0:30,4.5,0,71,0,9.3,0,50.6,0,14.8,0,9.9,0,8.7,0
2003/1/3,0:45,4.4,0,73,0,9.3,0,50.6,0,14.8,0,9.9,0,8.6,0
2003/1/3,1:00,4.4,0,74,0,9.3,0,50.8,0,14.8,0,9.9,0,8.6,0
2003/1/3,1:15,4.7,0,72,0,9.2,0,51,0,14.8,0,9.8,0,8.5,0
2003/1/3,1:30,4.7,0,72,0,9.2,0,51,0,14.8,0,9.8,0,8.5,0
2003/1/3,1:45,4.8,0,71,0,9.2,0,50.9,0,14.8,0,9.8,0,8.5,0
2003/1/3,2:00,4.7,0,73,0,9.1,0,51,0,14.8,0,9.8,0,8.4,0
2003/1/3,2:15,4.4,0,75,0,9.1,0,51.3,0,14.8,0,9.8,0,8.4,0
2003/1/3,2:30,4.4,0,76,0,9.1,0,51.3,0,14.8,0,9.8,0,8.4,0
2003/1/3,2:45,4.7,0,75,0,9.1,0,51.4,0,14.8,0,9.7,0,8.4,0
2003/1/3,3:00,5,0,72,0,9,0,51.4,0,14.8,0,9.7,0,8.3,0
2003/1/3,3:15,5.1,0,72,0,9,0,51.8,0,14.8,0,9.7,0,8.3,0
2003/1/3,3:30,5.2,0,73,0,9,0,51.7,0,14.8,0,9.7,0,8.3,0
2003/1/3,3:45,5.1,0,74,0,9,0,51.6,0,14.8,0,9.7,0,8.3,0
2003/1/3,4:00,5.3,0,73,0,9,0,51.7,0,14.8,0,9.7,0,8.3,0
2003/1/3,4:15,5.3,0,73,0,9,0,52,0,14.8,0,9.6,0,8.2,0
2003/1/3,4:30,5.5,0,72,0,8.9,0,52,0,14.8,0,9.6,0,8.2,0
2003/1/3,4:45,5.6,0,72,0,8.9,0,52.1,0,14.8,0,9.6,0,8.2,0
2003/1/3,5:00,5.5,0,73,0,8.9,0,52.4,0,14.8,0,9.6,0,8.2,0
2003/1/3,5:15,5.7,0,74,0,8.9,0,52.2,0,14.8,0,9.6,0,8.2,0
2003/1/3,5:30,5.7,0,77,0,8.9,0,52.3,0,14.8,0,9.6,0,8.2,0
2003/1/3,5:45,5.7,0,79,0,8.9,0,52.5,0,14.8,0,9.6,0,8.2,0
2003/1/3,6:00,5.8,0,80,0,8.9,0,52.5,0,14.8,0,9.5,0,8.2,0
2003/1/3,6:15,5.7,0,84,0,8.9,0,52.6,0,14.8,0,9.5,0,8.2,0
2003/1/3,6:30,6.1,0,87,0,8.9,0,53.1,0,14.8,0,9.5,0,8.2,0
2003/1/3,6:45,6.1,0,89,0,8.9,0,53,0,14.9,0,9.5,0,8.2,0
2003/1/3,7:00,6.2,0,89,0,8.9,0,53.3,0,14.8,0,9.5,0,8.2,0
2003/1/3,7:15,6.1,0,90,0,8.9,0,53.2,0,14.8,0,9.5,0,8.2,0
2003/1/3,7:30,6.1,0,89,0,8.8,0,53.5,0,14.8,0,9.5,0,8.2,0
2003/1/3,7:45,6.3,0,89,0,8.9,0,53.9,0,14.8,0,9.5,0,8.2,0
2003/1/3,8:00,6.1,0,87,0,8.9,0,54,0,14.8,0,9.5,0,8.2,0
2003/1/3,8:15,6.1,0,85,0,8.8,0,54.2,0,14.9,0,9.5,0,8.2,0
2003/1/3,8:30,6.1,0,85,0,8.8,0,54.3,0,14.9,0,9.5,0,8.2,0
2003/1/3,8:45,6.1,0,85,0,8.8,0,54.6,0,14.9,0,9.5,0,8.2,0
2003/1/3,9:00,6.1,0,86,0,8.9,0,54.8,0,14.9,0,9.5,0,8.2,0
2003/1/3,9:15,6.1,0,88,0,8.9,0,54.8,0,14.9,0,9.5,0,8.2,0
2003/1/3,9:30,6.1,0,91,0,8.9,0,55,0,14.9,0,9.5,0,8.2,0
2003/1/3,9:45,6.3,0,92,0,8.9,0,55.3,0,14.9,0,9.5,0,8.3,0
2003/1/3,10:00,6.2,0,93,0,8.9,0,55.4,0,14.9,0,9.5,0,8.3,0
2003/1/3,10:15,6.3,0,95,0,8.9,0,55.4,0,14.9,0,9.5,0,8.3,0
2003/1/3,10:30,6.4,0,98,0,8.9,0,55.8,0,14.9,0,9.5,0,8.3,0
2003/1/3,10:45,6.5,0,99,0,8.9,0,55.7,0,14.9,0,9.5,0,8.3,0
2003/1/3,11:00,6.5,0,99,0,8.9,0,56,0,14.9,0,9.5,0,8.3,0
2003/1/3,11:15,6.7,0,99,0,8.9,0,56,0,14.9,0,9.5,0,8.4,0
2003/1/3,11:30,6.9,0,99,0,8.9,0,56.3,0,14.9,0,9.5,0,8.4,0
2003/1/3,11:45,7.1,0,99,0,8.9,0,56.6,0,14.9,0,9.5,0,8.4,0
2003/1/3,12:00,7.5,0,99,0,8.9,0,56.5,0,14.9,0,9.5,0,8.4,0
2003/1/3,12:15,7.3,0,99,0,9,0,56.6,0,14.9,0,9.5,0,8.4,0
2003/1/3,12:30,7.5,0,98,0,9,0,56.9,0,14.9,0,9.5,0,8.5,0
2003/1/3,12:45,7.9,0,96,0,9,0,57.1,0,14.9,0,9.6,0,8.5,0
2003/1/3,13:00,8.4,0,90,0,9,0,57.5,0,15,0,9.6,0,8.5,0
2003/1/3,13:15,8.4,0,89,0,9,0,57.5,0,15,0,9.6,0,8.6,0
2003/1/3,13:30,8.5,0,87,0,9.1,0,57.5,0,15,0,9.6,0,8.6,0
2003/1/3,13:45,8.5,0,91,0,9.1,0,57.5,0,15,0,9.6,0,8.6,0
2003/1/3,14:00,8.5,0,93,0,9.1,0,57.7,0,14.9,0,9.6,0,8.7,0
2003/1/3,14:15,8.3,0,96,0,9.1,0,57.7,0,15,0,9.6,0,8.7,0
2003/1/3,14:30,8.2,0,96,0,9.2,0,57.9,0,15,0,9.6,0,8.8,0
2003/1/3,14:45,8.2,0,97,0,9.2,0,58,0,15,0,9.6,0,8.8,0
2003/1/3,15:00,8.4,0,94,0,9.2,0,58.1,0,15,0,9.6,0,8.8,0
2003/1/3,15:15,8.5,0,94,0,9.2,0,58.5,0,15,0,9.6,0,8.8,0
2003/1/3,15:30,8.6,0,96,0,9.2,0,58.5,0,15,0,9.7,0,8.9,0
2003/1/3,15:45,8.7,0,91,0,9.3,0,58.7,0,15,0,9.7,0,8.9,0
2003/1/3,16:00,8.8,0,89,0,9.3,0,58.6,0,15,0,9.7,0,8.9,0
2003/1/3,16:15,8.7,0,89,0,9.3,0,58.7,0,15,0,9.7,0,8.9,0
2003/1/3,16:30,7.9,0,92,0,9.3,0,58.8,0,15,0,9.7,0,9,0
2003/1/3,16:45,7.9,0,92,0,9.3,0,59,0,15.1,0,9.7,0,9,0
2003/1/3,17:00,7.7,0,92,0,9.4,0,59.3,0,15.1,0,9.7,0,9,0
2003/1/3,17:15,7.4,0,92,0,9.4,0,60,0,15.1,0,9.7,0,9,0
2003/1/3,17:30,7.3,0,92,0,9.4,0,59.8,0,15.1,0,9.8,0,9,0
2003/1/3,17:45,7.2,0,89,0,9.4,0,60.4,0,15.1,0,9.8,0,9,0
2003/1/3,18:00,7,0,84,0,9.4,0,60.4,0,15.1,0,9.8,0,9,0
2003/1/3,18:15,7,0,82,0,9.4,0,60.6,0,15.1,0,9.8,0,8.9,0
2003/1/3,18:30,6.9,0,77,0,9.4,0,60.8,0,15.1,0,9.8,0,8.9,0
2003/1/3,18:45,6.8,0,73,0,9.4,0,60.6,0,15.1,0,9.8,0,8.9,0
2003/1/3,19:00,6.7,0,70,0,9.4,0,60.8,0,15.1,0,9.8,0,8.9,0
2003/1/3,19:15,6.7,0,64,0,9.4,0,60.5,0,15.1,0,9.8,0,8.9,0
2003/1/3,19:30,6.5,0,64,0,9.4,0,60.3,0,15.1,0,9.8,0,8.9,0
2003/1/3,19:45,6.4,0,63,0,9.3,0,59.9,0,15.1,0,9.8,0,8.8,0
2003/1/3,20:00,6.3,0,62,0,9.3,0,59.9,0,15.1,0,9.8,0,8.8,0
2003/1/3,20:15,6.1,0,60,0,9.3,0,59.4,0,15.1,0,9.8,0,8.8,0
2003/1/3,20:30,6.1,0,59,0,9.3,0,59.2,0,15.1,0,9.8,0,8.7,0
2003/1/3,20:45,6,0,61,0,9.2,0,58.7,0,15.1,0,9.8,0,8.7,0
2003/1/3,21:00,5.7,0,62,0,9.2,0,58.4,0,15.1,0,9.7,0,8.7,0
2003/1/3,21:15,5.8,0,60,0,9.2,0,57.9,0,15.1,0,9.7,0,8.6,0
2003/1/3,21:30,5.7,0,60,0,9.1,0,57.5,0,15.1,0,9.7,0,8.6,0
2003/1/3,21:45,5.4,0,55,0,9.1,0,57.1,0,15.1,0,9.7,0,8.6,0
2003/1/3,22:00,5.4,0,56,0,9.1,0,56.7,0,15.1,0,9.7,0,8.5,0
2003/1/3,22:15,5.2,0,57,0,9,0,56.3,0,15.1,0,9.6,0,8.5,0
2003/1/3,22:30,5,0,56,0,9,0,55.8,0,15.1,0,9.6,0,8.4,0
2003/1/3,22:45,4.8,0,56,0,8.9,0,55.3,0,15.1,0,9.6,0,8.4,0
2003/1/3,23:00,4.7,0,57,0,8.9,0,54.9,0,15.1,0,9.5,0,8.4,0
2003/1/3,23:15,4.7,0,54,0,8.8,0,54.5,0,15,0,9.5,0,8.3,0
2003/1/3,23:30,4.6,0,53,0,8.8,0,54.1,0,15.1,0,9.5,0,8.3,0
2003/1/3,23:45,4.4,0,56,0,8.8,0,53.8,0,15,0,9.4,0,8.2,0
2003/1/4,0:00,4.4,0,54,0,8.7,0,53.4,0,15,0,9.4,0,8.2,0
2003/1/4,0:15,4.4,0,51,0,8.7,0,53.2,0,15,0,9.4,0,8.1,0
2003/1/4,0:30,4.3,0,55,0,8.6,0,53,0,15,0,9.3,0,8.1,0
2003/1/4,0:45,4.3,0,58,0,8.6,0,52.6,0,15,0,9.3,0,8,0
2003/1/4,1:00,4.2,0,59,0,8.5,0,52.5,0,15,0,9.3,0,8,0
2003/1/4,1:15,4.2,0,54,0,8.5,0,52.4,0,15,0,9.2,0,7.9,0
2003/1/4,1:30,4.2,0,55,0,8.5,0,52.3,0,15,0,9.2,0,7.9,0
2003/1/4,1:45,4.1,0,59,0,8.4,0,52.2,0,15,0,9.2,0,7.8,0
2003/1/4,2:00,4,0,64,0,8.4,0,52,0,14.9,0,9.1,0,7.8,0
2003/1/4,2:15,3.8,0,62,0,8.4,0,52,0,14.9,0,9.1,0,7.7,0
2003/1/4,2:30,3.9,0,62,0,8.3,0,52.1,0,14.9,0,9.1,0,7.7,0
2003/1/4,2:45,3.8,0,63,0,8.3,0,52.2,0,14.9,0,9,0,7.7,0
2003/1/4,3:00,3.8,0,63,0,8.3,0,52.2,0,14.9,0,9,0,7.6,0
2003/1/4,3:15,3.7,0,62,0,8.2,0,52.3,0,14.9,0,8.9,0,7.6,0
2003/1/4,3:30,3.5,0,67,0,8.2,0,52.3,0,14.9,0,8.9,0,7.5,0
2003/1/4,3:45,3.3,0,69,0,8.1,0,52.2,0,14.8,0,8.9,0,7.5,0
2003/1/4,4:00,3.2,0,68,0,8.1,0,52.4,0,14.8,0,8.8,0,7.5,0
2003/1/4,4:15,3.2,0,68,0,8.1,0,52.5,0,14.8,0,8.8,0,7.4,0
2003/1/4,4:30,3.1,0,69,0,8,0,52.6,0,14.8,0,8.8,0,7.4,0
2003/1/4,4:45,3,0,70,0,8,0,52.6,0,14.8,0,8.7,0,7.3,0
2003/1/4,5:00,3.1,0,67,0,7.9,0,52.8,0,14.8,0,8.7,0,7.3,0
2003/1/4,5:15,2.8,0,70,0,7.9,0,52.8,0,14.7,0,8.6,0,7.2,0
2003/1/4,5:30,2.7,0,66,0,7.8,0,52.9,0,14.7,0,8.6,0,7.2,0
2003/1/4,5:45,2.9,0,65,0,7.8,0,52.9,0,14.7,0,8.6,0,7.2,0
2003/1/4,6:00,2.8,0,63,0,7.8,0,52.7,0,14.7,0,8.5,0,7.1,0
2003/1/4,6:15,2.8,0,61,0,7.7,0,52.6,0,14.7,0,8.5,0,7.1,0
2003/1/4,6:30,2.9,0,59,0,7.7,0,52.4,0,14.7,0,8.4,0,7,0
2003/1/4,6:45,2.9,0,56,0,7.6,0,52.1,0,14.6,0,8.4,0,7,0
2003/1/4,7:00,3,0,55,0,7.6,0,51.8,0,14.6,0,8.3,0,6.9,0
2003/1/4,7:15,2.9,0,59,0,7.5,0,51.5,0,14.6,0,8.3,0,6.9,0
2003/1/4,7:30,2.8,0,58,0,7.5,0,51.2,0,14.5,0,8.2,0,6.8,0
2003/1/4,7:45,2.9,0,55,0,7.4,0,51.1,0,14.5,0,8.2,0,6.8,0
2003/1/4,8:00,2.8,0,58,0,7.4,0,50.9,0,14.5,0,8.2,0,6.7,0
2003/1/4,8:15,2.8,0,59,0,7.4,0,50.7,0,14.5,0,8.1,0,6.7,0
2003/1/4,8:30,2.8,0,59,0,7.3,0,50.4,0,14.5,0,8.1,0,6.7,0
2003/1/4,8:45,2.8,0,60,0,7.3,0,50.4,0,14.5,0,8.1,0,6.6,0
2003/1/4,9:00,2.8,0,60,0,7.2,0,50.4,0,14.4,0,8,0,6.6,0
2003/1/4,9:15,2.9,0,61,0,7.2,0,50.3,0,14.4,0,8,0,6.6,0
2003/1/4,9:30,3,0,62,0,7.2,0,50.3,0,14.4,0,7.9,0,6.6,0
2003/1/4,9:45,3.1,0,62,0,7.1,0,50.4,0,14.4,0,7.9,0,6.5,0
2003/1/4,10:00,3.2,0,62,0,7.1,0,50.5,0,14.4,0,7.9,0,6.5,0
2003/1/4,10:15,3.2,0,60,0,7.1,0,50.6,0,14.3,0,7.8,0,6.5,0
2003/1/4,10:30,3.2,0,63,0,7.1,0,50.7,0,14.3,0,7.8,0,6.5,0
2003/1/4,10:45,3.2,0,62,0,7.1,0,50.7,0,14.3,0,7.8,0,6.5,0
2003/1/4,11:00,3.1,0,64,0,7,0,50.8,0,14.2,0,7.7,0,6.5,0
2003/1/4,11:15,3.3,0,62,0,7,0,50.9,0,14.2,0,7.7,0,6.4,0
2003/1/4,11:30,3,0,65,0,7,0,51,0,14.2,0,7.7,0,6.4,0
2003/1/4,11:45,3,0,67,0,7,0,51.1,0,14.2,0,7.6,0,6.4,0
2003/1/4,12:00,2.9,0,69,0,7,0,51.3,0,14.2,0,7.6,0,6.4,0
2003/1/4,12:15,2.4,0,77,0,6.9,0,51.4,0,14.2,0,7.6,0,6.4,0
2003/1/4,12:30,2.3,0,78,0,6.9,0,51.7,0,14.1,0,7.6,0,6.3,0
2003/1/4,12:45,2.4,0,78,0,6.9,0,52,0,14.1,0,7.6,0,6.3,0
2003/1/4,13:00,2.3,0,80,0,6.9,0,52.4,0,14.1,0,7.5,0,6.3,0
2003/1/4,13:15,2.1,0,82,0,6.9,0,52.7,0,14.1,0,7.5,0,6.2,0
2003/1/4,13:30,2,0,81,0,6.8,0,53.1,0,14.1,0,7.5,0,6.2,0
2003/1/4,13:45,2.2,0,77,0,6.8,0,53.2,0,14,0,7.5,0,6.2,0
2003/1/4,14:00,2.1,0,75,0,6.8,0,53.7,0,14,0,7.4,0,6.1,0
2003/1/4,14:15,1.8,0,78,0,6.8,0,53.8,0,14,0,7.4,0,6.1,0
2003/1/4,14:30,1.8,0,77,0,6.7,0,53.9,0,14,0,7.4,0,6.1,0
2003/1/4,14:45,1.5,0,78,0,6.7,0,54.1,0,14,0,7.3,0,6,0
2003/1/4,15:00,1.5,0,80,0,6.7,0,54.3,0,13.9,0,7.3,0,6,0
2003/1/4,15:15,1.4,0,82,0,6.6,0,54.5,0,13.9,0,7.3,0,5.9,0
2003/1/4,15:30,1.4,0,82,0,6.6,0,54.5,0,13.9,0,7.3,0,5.9,0
2003/1/4,15:45,1.4,0,76,0,6.6,0,54.8,0,13.9,0,7.2,0,5.9,0
2003/1/4,16:00,1.5,0,73,0,6.5,0,55.1,0,13.9,0,7.2,0,5.8,0
2003/1/4,16:15,1.5,0,73,0,6.5,0,54.9,0,13.9,0,7.2,0,5.7,0
2003/1/4,16:30,1.7,0,66,0,6.4,0,54.8,0,13.8,0,7.1,0,5.7,0
2003/1/4,16:45,1.8,0,62,0,6.4,0,54.7,0,13.8,0,7.1,0,5.7,0
2003/1/4,17:00,1.8,0,58,0,6.4,0,54.5,0,13.8,0,7.1,0,5.6,0
2003/1/4,17:15,1.8,0,57,0,6.3,0,54.1,0,13.7,0,7,0,5.6,0
2003/1/4,17:30,1.7,0,55,0,6.3,0,53.6,0,13.7,0,7,0,5.5,0
2003/1/4,17:45,1.8,0,53,0,6.2,0,53,0,13.7,0,7,0,5.5,0
2003/1/4,18:00,1.8,0,53,0,6.1,0,52.3,0,13.7,0,6.9,0,5.5,0
2003/1/4,18:15,1.7,0,51,0,6.1,0,51.8,0,13.7,0,6.9,0,5.4,0
2003/1/4,18:30,1.7,0,51,0,6.1,0,51.3,0,13.6,0,6.8,0,5.4,0
2003/1/4,18:45,1.6,0,49,0,6,0,50.8,0,13.6,0,6.8,0,5.3,0
2003/1/4,19:00,1.6,0,47,0,5.9,0,50.4,0,13.6,0,6.7,0,5.3,0
2003/1/4,19:15,1.5,0,48,0,5.9,0,50,0,13.6,0,6.7,0,5.2,0
2003/1/4,19:30,1.5,0,48,0,5.9,0,49.3,0,13.5,0,6.6,0,5.2,0
2003/1/4,19:45,1.5,0,50,0,5.8,0,48.9,0,13.5,0,6.6,0,5.1,0
2003/1/4,20:00,1.5,0,50,0,5.7,0,48.5,0,13.5,0,6.5,0,5.1,0
2003/1/4,20:15,1.2,0,53,0,5.7,0,48.4,0,13.4,0,6.5,0,5,0
2003/1/4,20:30,1.2,0,49,0,5.6,0,48,0,13.4,0,6.4,0,5,0
2003/1/4,20:45,1.1,0,54,0,5.6,0,47.9,0,13.4,0,6.4,0,4.9,0
2003/1/4,21:00,0.7,0,62,0,5.5,0,47.6,0,13.3,0,6.3,0,4.9,0
2003/1/4,21:15,0.7,0,56,0,5.5,0,47.8,0,13.3,0,6.3,0,4.8,0
2003/1/4,21:30,0.5,0,60,0,5.4,0,47.9,0,13.3,0,6.2,0,4.8,0
2003/1/4,21:45,0.3,0,66,0,5.4,0,48.1,0,13.3,0,6.2,0,4.7,0
2003/1/4,22:00,-0.1,0,73,0,5.3,0,48.3,0,13.2,0,6.1,0,4.7,0
2003/1/4,22:15,0,0,70,0,5.3,0,48.7,0,13.2,0,6.1,0,4.7,0
2003/1/4,22:30,-0.1,0,69,0,5.2,0,49.3,0,13.2,0,6,0,4.6,0
2003/1/4,22:45,-0.4,0,75,0,5.1,0,49.6,0,13.1,0,6,0,4.6,0
2003/1/4,23:00,-0.8,0,75,0,5.1,0,49.8,0,13.1,0,5.9,0,4.5,0
2003/1/4,23:15,-0.9,0,81,0,5,0,50.3,0,13.1,0,5.9,0,4.5,0
2003/1/4,23:30,-0.8,0,78,0,5,0,50.6,0,13,0,5.8,0,4.4,0
2003/1/4,23:45,-1.1,0,82,0,4.9,0,51.1,0,13,0,5.8,0,4.3,0
2003/1/5,0:00,-0.8,0,77,0,4.9,0,51.4,0,13,0,5.7,0,4.3,0
2003/1/5,0:15,-0.5,0,71,0,4.8,0,51.7,0,13,0,5.7,0,4.2,0
2003/1/5,0:30,-0.7,0,80,0,4.8,0,51.9,0,12.9,0,5.6,0,4.2,0
2003/1/5,0:45,-0.4,0,67,0,4.8,0,52,0,12.9,0,5.6,0,4.1,0
2003/1/5,1:00,-0.1,0,60,0,4.7,0,52.2,0,12.9,0,5.5,0,4.1,0
2003/1/5,1:15,-0.3,0,65,0,4.7,0,52.1,0,12.9,0,5.5,0,4.1,0
2003/1/5,1:30,-1.1,0,77,0,4.7,0,51.8,0,12.8,0,5.5,0,4,0
2003/1/5,1:45,-1,0,74,0,4.6,0,51.9,0,12.8,0,5.4,0,4,0
2003/1/5,2:00,-1.1,0,79,0,4.6,0,52.1,0,12.8,0,5.4,0,3.9,0
2003/1/5,2:15,-1.2,0,80,0,4.5,0,52.3,0,12.7,0,5.3,0,3.9,0
2003/1/5,2:30,-1.1,0,77,0,4.5,0,52.5,0,12.7,0,5.3,0,3.8,0
2003/1/5,2:45,-0.9,0,82,0,4.4,0,52.8,0,12.7,0,5.2,0,3.8,0
2003/1/5,3:00,-0.7,0,76,0,4.4,0,52.8,0,12.7,0,5.2,0,3.7,0
2003/1/5,3:15,-0.7,0,77,0,4.4,0,53.2,0,12.6,0,5.1,0,3.7,0
2003/1/5,3:30,-1,0,84,0,4.3,0,53.3,0,12.6,0,5.1,0,3.7,0
2003/1/5,3:45,-0.7,0,77,0,4.3,0,53.4,0,12.5,0,5,0,3.6,0
2003/1/5,4:00,-0.4,0,61,0,4.3,0,53.7,0,12.5,0,5,0,3.6,0
2003/1/5,4:15,-0.3,0,56,0,4.2,0,53.7,0,12.5,0,4.9,0,3.6,0
2003/1/5,4:30,-0.5,0,61,0,4.2,0,53.3,0,12.5,0,4.9,0,3.5,0
2003/1/5,4:45,-0.5,0,55,0,4.1,0,52.8,0,12.4,0,4.9,0,3.5,0
2003/1/5,5:00,-0.5,0,51,0,4.1,0,52.3,0,12.4,0,4.8,0,3.5,0